[[{"header":{"parameterUnit":"m.s-1","parameterCategory":1,"la1":30.2991,"la2":30.254,"lo1":-89.0895,"lo2":-89.0444,"dy":0.0017,"dx":0.0017,"nx":28,"ny":28,"refTime":"2023-09-15T21:00:00:Z","depth":0,"parameterNumber":2,"parameterNumberName":"U-component_of_WINDS"},"data":[0,0,0,0,0,0,0,0,0,0,0,0,0,0,0,0,0,0,0,0,0,0,0,0,0,0,0,0,0,0,0,0,0,0,0,0,0,0,0,0,0,0,0,0,0,0,0,0,0,0,0,0,0,0,0,0,0,0,-0.5054,-0.5053,0,-0.4948,-0.4947,-0.4946,-0.4915,-0.4916,-0.4917,-0.4917,-0.4803,-0.4799,-0.4796,0,0,0,0,0,0,0,0,0,0,0,0,0,-0.5226,-0.5223,-0.5054,-0.5053,-0.5051,-0.4948,-0.4947,-0.4945,-0.4915,-0.4916,-0.4917,-0.4917,-0.4804,-0.48,-0.4795,0,0,0,0,0,0,0,0,0,0,0,0,0,-0.5139,-0.5222,-0.5054,-0.5024,-0.502,-0.4948,-0.4947,-0.4945,-0.4915,-0.4916,-0.4917,-0.4918,-0.4805,-0.48,-0.4795,-0.4743,0,0,-0.4778,-0.4776,0,0,0,0,0,0,0,0,-0.5144,-0.5133,-0.503,-0.5026,-0.5022,-0.4946,-0.4966,-0.4877,-0.4915,-0.4955,-0.4917,-0.4918,-0.4849,-0.484,-0.4818,-0.4738,-0.4733,-0.4778,-0.4775,-0.4772,-0.4771,0,0,0,0,0,0,0,-0.515,-0.5137,-0.5012,-0.5028,-0.5023,-0.5015,-0.5003,-0.4949,-0.4898,-0.4951,-0.4949,-0.4937,-0.4847,-0.4824,-0.4815,-0.4732,-0.4778,-0.4773,-0.477,-0.4768,-0.4605,-0.4604,0,0,0,0,0,0,-0.5162,-0.5142,-0.5015,-0.5009,-0.5087,-0.5011,-0.4998,-0.4969,-0.4899,-0.4889,-0.4937,-0.4936,-0.4832,-0.4822,-0.4811,-0.4747,-0.4772,-0.4767,-0.4764,-0.4606,-0.4605,-0.4604,0,0,0,0,0,0,-0.5166,-0.5151,-0.5019,-0.5075,-0.5057,-0.5007,-0.4975,-0.4967,-0.4943,-0.4888,-0.4878,-0.4922,-0.4833,-0.4819,-0.4761,-0.4743,-0.4765,-0.476,-0.4608,-0.4606,-0.4605,-0.4618,0,0,0,0,0,0,-0.5171,-0.5152,-0.5133,-0.5075,-0.5055,-0.4972,-0.4974,-0.4964,-0.4935,-0.4933,-0.4871,-0.4862,-0.4832,-0.477,-0.4756,-0.4736,-0.4756,-0.4609,-0.4607,-0.4605,-0.4619,-0.4617,-0.4616,0,0,0,0,0,-0.5177,-0.5139,-0.5132,-0.5117,-0.503,-0.4971,-0.496,-0.4928,-0.4933,-0.4913,-0.4878,-0.4864,-0.4748,-0.4764,-0.4748,-0.4726,-0.461,-0.4608,-0.4605,-0.462,-0.4618,-0.4616,0,0,0,0,0,0,-0.5194,-0.5131,-0.5122,-0.5065,-0.5024,-0.4966,-0.4939,-0.4926,-0.4882,-0.4882,-0.4843,-0.4829,-0.4775,-0.4745,-0.4764,-0.4674,-0.4678,-0.4673,-0.4695,-0.4692,-0.4691,-0.4698,-0.4751,0,0,0,0,0,-0.5192,-0.5151,-0.5098,-0.5052,-0.5032,-0.499,-0.4963,-0.4943,-0.4898,-0.488,-0.484,-0.4796,-0.475,-0.4719,-0.4673,-0.4616,-0.4601,-0.4593,-0.4591,-0.459,-0.4585,-0.4553,-0.4548,-0.4596,-0.4596,-0.4596,0,0,-0.5185,-0.5146,-0.5122,-0.5055,-0.5021,-0.4978,-0.4975,-0.493,-0.4898,-0.4872,-0.4816,-0.4786,-0.4734,-0.4676,-0.4649,-0.465,-0.4569,-0.4587,-0.4586,-0.4582,-0.455,-0.4545,-0.4541,-0.4594,-0.4595,-0.4595,0,0,-0.5151,-0.5118,-0.5077,-0.5044,-0.4994,-0.4966,-0.4957,-0.4901,-0.4881,-0.4825,-0.4805,-0.4766,-0.4687,-0.4651,-0.4622,-0.4579,-0.4565,-0.4565,-0.4555,-0.4524,-0.4521,-0.4517,-0.4501,-0.4496,-0.4561,-0.4561,-0.4561,0,-0.5149,-0.5086,-0.5057,-0.5014,-0.4985,-0.4963,-0.4921,-0.489,-0.4826,-0.4806,-0.4809,-0.471,-0.4673,-0.4608,-0.4598,-0.4575,-0.4562,-0.4571,-0.4524,-0.452,-0.4516,-0.4501,-0.4495,-0.4561,-0.4561,-0.4561,-0.4561,0,-0.5086,-0.5043,-0.5016,-0.4958,-0.4926,-0.4883,-0.4847,-0.4818,-0.4802,-0.4774,-0.4717,-0.4673,-0.4619,-0.4602,-0.4584,-0.4534,-0.4536,-0.4532,-0.4535,-0.4513,-0.4497,-0.4491,-0.4562,-0.4561,-0.4561,-0.4561,0,0,-0.5057,-0.4986,-0.4977,-0.4951,-0.4895,-0.4861,-0.4818,-0.4767,-0.4743,-0.4701,-0.4663,-0.4598,-0.4595,-0.4563,-0.4541,-0.4514,-0.4483,-0.4513,-0.4511,-0.4509,-0.4425,-0.4428,-0.4422,-0.4474,-0.4473,-0.4472,-0.443,0,-0.5016,-0.494,-0.4914,-0.485,-0.481,-0.4791,-0.4753,-0.4715,-0.4688,-0.4649,-0.4619,-0.4574,-0.4573,-0.4554,-0.4527,-0.4493,-0.4466,-0.4496,-0.4437,-0.4436,-0.445,-0.4414,-0.4416,-0.4378,-0.4424,-0.4422,-0.4422,0,-0.4957,-0.4917,-0.4851,-0.4802,-0.4784,-0.4751,-0.4704,-0.4667,-0.4623,-0.4606,-0.4572,-0.4553,-0.4507,-0.4515,-0.445,-0.4471,-0.4446,-0.4427,-0.4424,-0.4416,-0.4426,-0.4404,-0.4365,-0.4359,-0.4412,-0.4413,-0.4414,0,-0.4942,-0.4872,-0.4823,-0.4802,-0.4744,-0.4722,-0.4696,-0.4653,-0.4625,-0.4583,-0.4565,-0.4517,-0.4491,-0.4454,-0.4423,-0.4432,-0.4361,-0.4366,-0.4344,-0.4345,-0.4328,-0.4329,-0.4283,-0.4314,-0.4314,-0.4314,-0.4315,0,-0.4899,-0.4858,-0.4816,-0.4786,-0.4741,-0.4712,-0.4667,-0.464,-0.4603,-0.4567,-0.4547,-0.4513,-0.4474,-0.4435,-0.441,-0.436,-0.4348,-0.4332,-0.4326,-0.4333,-0.4335,-0.4315,-0.4316,-0.4313,-0.4313,-0.4313,-0.4314,0,-0.4873,-0.4844,-0.479,-0.4741,-0.4728,-0.4697,-0.4654,-0.4624,-0.4598,-0.4553,-0.454,-0.4499,-0.4452,-0.4418,-0.4356,-0.434,-0.4286,-0.428,-0.4302,-0.4298,-0.4278,-0.428,-0.4216,-0.4206,-0.4245,-0.4245,-0.4244,0,-0.4847,-0.4816,-0.4765,-0.4741,-0.4716,-0.4677,-0.4649,-0.462,-0.4591,-0.4541,-0.4516,-0.4469,-0.4429,-0.4355,-0.4319,-0.4272,-0.4264,-0.4245,-0.4256,-0.4266,-0.4263,-0.4265,-0.4261,-0.4243,-0.4242,-0.4242,-0.4242,0,-0.4803,-0.479,-0.4752,-0.4709,-0.4678,-0.4642,-0.4606,-0.4586,-0.455,-0.4519,-0.4473,-0.4443,-0.4382,-0.4335,-0.4285,-0.4257,-0.4243,-0.424,-0.4232,-0.4238,-0.4252,-0.4244,-0.4296,-0.424,-0.424,-0.4241,-0.4241,-0.4241,-0.4775,-0.4748,-0.4708,-0.4667,-0.4638,-0.4605,-0.4575,-0.4547,-0.4508,-0.4458,-0.4443,-0.4395,-0.4353,-0.4285,-0.4258,-0.4219,-0.4219,-0.4208,-0.4204,-0.4202,-0.4202,-0.426,-0.4209,-0.4209,-0.4209,-0.4209,-0.4209,0,-0.473,-0.4704,-0.4667,-0.4619,-0.4586,-0.458,-0.454,-0.4512,-0.4471,-0.4434,-0.4397,-0.4344,-0.4299,-0.4261,-0.4214,-0.419,-0.4182,-0.4178,-0.4179,-0.4173,-0.4205,-0.4216,-0.4185,-0.4185,-0.4185,-0.4185,-0.4185,-0.4185,-0.4702,-0.4655,-0.4639,-0.4578,-0.4552,-0.4506,-0.4484,-0.4454,-0.4425,-0.4368,-0.4331,-0.4308,-0.427,-0.4221,-0.4179,-0.4169,-0.4152,-0.415,-0.4138,-0.4168,-0.417,-0.4173,-0.4183,-0.4147,-0.4147,-0.4109,-0.4109,-0.4108]},{"header":{"parameterUnit":"m.s-1","parameterCategory":1,"la1":30.2991,"la2":30.254,"lo1":-89.0895,"lo2":-89.0444,"dy":0.0017,"dx":0.0017,"nx":28,"ny":28,"refTime":"2023-09-15T21:00:00:Z","depth":0,"parameterNumber":3,"parameterNumberName":"V-component_of_WINDS"},"data":[0,0,0,0,0,0,0,0,0,0,0,0,0,0,0,0,0,0,0,0,0,0,0,0,0,0,0,0,0,0,0,0,0,0,0,0,0,0,0,0,0,0,0,0,0,0,0,0,0,0,0,0,0,0,0,0,0,0,-0.2408,-0.241,0,-0.2668,-0.2671,-0.2674,-0.2866,-0.2868,-0.287,-0.2871,-0.3136,-0.3142,-0.3147,0,0,0,0,0,0,0,0,0,0,0,0,0,-0.2075,-0.208,-0.2407,-0.241,-0.2414,-0.2667,-0.2671,-0.2674,-0.2866,-0.2868,-0.287,-0.2872,-0.3135,-0.3141,-0.3148,0,0,0,0,0,0,0,0,0,0,0,0,0,-0.2265,-0.2082,-0.2407,-0.254,-0.2555,-0.2667,-0.2671,-0.2675,-0.2866,-0.2868,-0.2871,-0.2873,-0.3133,-0.314,-0.3149,-0.3148,0,0,-0.3174,-0.3177,0,0,0,0,0,0,0,0,-0.2254,-0.2277,-0.2517,-0.2531,-0.2548,-0.2737,-0.2651,-0.2834,-0.2865,-0.2747,-0.2872,-0.2874,-0.3001,-0.3021,-0.3064,-0.3161,-0.3172,-0.3174,-0.3179,-0.3183,-0.3185,0,0,0,0,0,0,0,-0.2241,-0.2267,-0.251,-0.252,-0.2539,-0.2586,-0.2616,-0.2687,-0.2857,-0.2758,-0.2773,-0.2801,-0.301,-0.3055,-0.3071,-0.3176,-0.3174,-0.3181,-0.3187,-0.319,-0.3286,-0.3284,0,0,0,0,0,0,-0.2207,-0.2255,-0.2502,-0.2518,-0.2404,-0.259,-0.2624,-0.2674,-0.2857,-0.2887,-0.2798,-0.2809,-0.304,-0.3062,-0.3081,-0.3094,-0.3183,-0.3191,-0.3195,-0.3289,-0.3286,-0.3283,0,0,0,0,0,0,-0.2199,-0.2227,-0.2492,-0.2391,-0.2428,-0.2593,-0.2648,-0.2678,-0.2723,-0.2887,-0.2919,-0.2813,-0.3043,-0.307,-0.3131,-0.3106,-0.3194,-0.3202,-0.3291,-0.3288,-0.3284,-0.3118,0,0,0,0,0,0,-0.2189,-0.2223,-0.2225,-0.2389,-0.2433,-0.2536,-0.2646,-0.2681,-0.2737,-0.2753,-0.291,-0.2938,-0.3047,-0.3117,-0.3139,-0.3119,-0.3208,-0.3294,-0.329,-0.3286,-0.3126,-0.3109,-0.3094,0,0,0,0,0,-0.2176,-0.2168,-0.2224,-0.2253,-0.2439,-0.2534,-0.2559,-0.2685,-0.2734,-0.2737,-0.2843,-0.2933,-0.3105,-0.3122,-0.3148,-0.313,-0.3297,-0.3291,-0.3286,-0.3133,-0.3112,-0.3094,0,0,0,0,0,0,-0.1996,-0.2192,-0.2257,-0.2301,-0.2399,-0.2567,-0.2575,-0.2659,-0.2745,-0.2757,-0.2909,-0.2943,-0.2987,-0.3065,-0.308,-0.3139,-0.3212,-0.3211,-0.3087,-0.3068,-0.3053,-0.3033,-0.3215,0,0,0,0,0,-0.1961,-0.2023,-0.2191,-0.2214,-0.226,-0.2408,-0.2454,-0.2543,-0.2651,-0.2694,-0.2804,-0.2905,-0.2982,-0.303,-0.3109,-0.3138,-0.3175,-0.3138,-0.3122,-0.3108,-0.3106,-0.3127,-0.3113,-0.3266,-0.3266,-0.3266,0,0,-0.1891,-0.2005,-0.2035,-0.218,-0.2267,-0.2327,-0.2442,-0.2501,-0.2547,-0.2703,-0.2767,-0.2851,-0.2974,-0.3018,-0.3043,-0.3084,-0.3072,-0.3101,-0.3089,-0.3095,-0.312,-0.3105,-0.3092,-0.3262,-0.3263,-0.3263,0,0,-0.1793,-0.1885,-0.1915,-0.1999,-0.213,-0.2228,-0.2235,-0.239,-0.2451,-0.2518,-0.2636,-0.2693,-0.2822,-0.2905,-0.2964,-0.2896,-0.2982,-0.2917,-0.2834,-0.2852,-0.284,-0.283,-0.2806,-0.2795,-0.2915,-0.2914,-0.2914,0,-0.1689,-0.1785,-0.1919,-0.1972,-0.2032,-0.2175,-0.2206,-0.2281,-0.243,-0.2468,-0.2512,-0.2677,-0.277,-0.2836,-0.2819,-0.2862,-0.2874,-0.2901,-0.2831,-0.2822,-0.2815,-0.2794,-0.2784,-0.2906,-0.2907,-0.2907,-0.2908,0,-0.165,-0.1714,-0.1722,-0.1863,-0.1924,-0.1965,-0.2105,-0.2151,-0.2233,-0.2327,-0.2393,-0.2509,-0.2615,-0.2637,-0.2718,-0.2714,-0.2735,-0.2802,-0.2879,-0.2789,-0.2772,-0.2765,-0.2893,-0.2896,-0.2899,-0.2901,0,0,-0.1447,-0.1661,-0.1662,-0.1727,-0.1881,-0.1933,-0.198,-0.2084,-0.212,-0.2217,-0.2261,-0.2366,-0.243,-0.2496,-0.2588,-0.2603,-0.2542,-0.267,-0.2675,-0.2642,-0.2545,-0.2493,-0.2481,-0.26,-0.2599,-0.2598,-0.2534,0,-0.1374,-0.1467,-0.1588,-0.164,-0.1701,-0.1838,-0.1879,-0.1977,-0.2065,-0.213,-0.2227,-0.23,-0.2378,-0.2419,-0.2441,-0.2545,-0.2525,-0.2551,-0.2641,-0.2643,-0.2607,-0.2473,-0.2419,-0.2353,-0.2528,-0.2527,-0.2527,0,-0.1301,-0.1391,-0.1448,-0.1596,-0.1627,-0.1661,-0.1766,-0.1826,-0.194,-0.2003,-0.2076,-0.2175,-0.2231,-0.2298,-0.2378,-0.2392,-0.2437,-0.2493,-0.2493,-0.2507,-0.2579,-0.2483,-0.2335,-0.2325,-0.2517,-0.2518,-0.2519,0,-0.1147,-0.1283,-0.1335,-0.1387,-0.1561,-0.1582,-0.1655,-0.1772,-0.1826,-0.1917,-0.1954,-0.205,-0.2102,-0.2174,-0.2296,-0.2334,-0.2361,-0.2439,-0.2415,-0.2412,-0.2415,-0.2413,-0.2273,-0.2442,-0.2442,-0.2442,-0.2442,0,-0.1053,-0.1082,-0.1268,-0.13,-0.1337,-0.1477,-0.151,-0.1595,-0.1698,-0.1748,-0.1872,-0.1917,-0.2075,-0.2138,-0.2233,-0.2284,-0.2306,-0.2359,-0.2384,-0.2348,-0.2341,-0.2379,-0.2387,-0.244,-0.244,-0.2441,-0.2441,0,-0.0888,-0.1014,-0.1079,-0.1238,-0.1279,-0.1299,-0.1436,-0.1472,-0.1567,-0.1629,-0.1652,-0.1801,-0.1881,-0.201,-0.2128,-0.2192,-0.2226,-0.2267,-0.2187,-0.2203,-0.2171,-0.2172,-0.2051,-0.2042,-0.2214,-0.2213,-0.2211,0,-0.082,-0.0846,-0.1007,-0.105,-0.1119,-0.1187,-0.1243,-0.1381,-0.1434,-0.1565,-0.1584,-0.1675,-0.1755,-0.1877,-0.1995,-0.2086,-0.2131,-0.2082,-0.2145,-0.2108,-0.213,-0.2127,-0.2131,-0.2067,-0.2064,-0.2062,-0.2061,0,-0.0685,-0.0746,-0.0822,-0.092,-0.0983,-0.1067,-0.1156,-0.1184,-0.1342,-0.1395,-0.1479,-0.154,-0.1661,-0.1749,-0.1856,-0.1932,-0.2022,-0.2039,-0.2039,-0.2003,-0.1955,-0.1981,-0.2147,-0.2042,-0.2044,-0.2045,-0.2046,-0.2047,-0.0568,-0.0597,-0.0715,-0.0796,-0.0877,-0.0958,-0.0999,-0.1099,-0.1172,-0.1281,-0.1358,-0.1437,-0.1549,-0.1703,-0.1773,-0.1836,-0.1876,-0.1875,-0.1875,-0.1873,-0.1859,-0.1944,-0.1856,-0.1857,-0.1858,-0.1858,-0.1859,0,-0.044,-0.0522,-0.0595,-0.0716,-0.0779,-0.0859,-0.0962,-0.1009,-0.1077,-0.1175,-0.125,-0.1346,-0.1432,-0.1556,-0.1651,-0.1678,-0.1721,-0.1698,-0.1698,-0.1714,-0.1818,-0.1809,-0.1661,-0.1661,-0.1661,-0.1661,-0.1661,-0.1661,-0.0381,-0.0435,-0.0509,-0.0604,-0.0687,-0.0766,-0.0817,-0.0892,-0.0971,-0.1072,-0.1144,-0.1225,-0.1333,-0.1437,-0.1519,-0.1553,-0.1582,-0.1546,-0.1592,-0.1688,-0.1706,-0.1724,-0.1716,-0.1551,-0.1551,-0.1483,-0.1483,-0.1482]}]]